Tracking 28052 objects as of 22-Sep-2023
HD Live streaming from Space Station
objects crossing your sky now

PSLV DEB

Track PSLV DEB now!
10-day predictions


NORAD ID: 27127
Int'l Code: 2001-049BX
Perigee: 514.0 km
Apogee: 544.1 km
Inclination: 97.7 °
Period: 95.1 minutes
Semi major axis: 6900 km
RCS: 0.304 m2 (medium)
Launch date: October 22, 2001
Source: India (IND)
Launch site: SRIHARIKOTA (SRI)

Note: This is SATELLITE DEBRIS
Your satellite tracking list
Your tracking list is empty




NASA's NSSDC Master Catalog

Two Line Element Set (TLE):
1 27127U 01049BX  23264.94935701  .00023948  00000-0  12869-2 0  9992
2 27127  97.6587 242.2302 0021813 161.2899 263.2046 15.14686091180417
Source of the keplerian elements: AFSPC